Regional Weather Roundup
Issued by NWS Cleveland, OH

Home | Current Version | Previous Version | Graphics & Text | Print | Product List | Glossary On
Versions: 1 2 3 4 5 6 7 8 9 10 11 12 13 14 15 16 17 18 19 20 21 22 23 24 25 26 27 28 29 30 31 32 33 34 35 36 37 38 39 40 41 42 43 44 45 46 47 48 49 50
000
ASUS41 KCLE 041202
RWRCLE
OHIO REGIONAL WEATHER ROUNDUP
NATIONAL WEATHER SERVICE CLEVELAND, OH
800 AM EDT WED MAY 04 2016

NOTE: "FAIR" INDICATES FEW OR NO CLOUDS BELOW 12,000 FEET WITH NO
SIGNIFICANT WEATHER AND/OR OBSTRUCTIONS TO VISIBILITY.

OHZ001>008-015>018-024>027-034-035-043-044-041300-
   NORTHWEST OHIO

CITY           SKY/WX    TMP DP  RH WIND       PRES   REMARKS
DEFIANCE       PTSUNNY   54  45  71 S9        29.62F
FINDLAY        CLOUDY    51  43  74 S10       29.64F
TOLEDO EXPRESS CLOUDY    50  45  83 S7        29.62F
TOLEDO EXEC    CLOUDY    51  45  79 S7        29.64F
LIMA           CLOUDY    51  46  83 S10       29.64F
$$

OHZ009>014-019>023-028>033-038-089-041300-
   NORTHEAST OHIO

CITY           SKY/WX    TMP DP  RH WIND       PRES   REMARKS
CLE-HOPKINS    CLOUDY    51  44  77 S9        29.71F
CLE-LAKEFRONT  CLOUDY    52  42  69 SE7       29.68F
CUY CO. ARPT   MOSUNNY   54  43  66 S10       29.70F
LORAIN-ELYRIA  MOSUNNY   47  42  83 S7        29.68F
ASHTABULA      MOSUNNY   43  40  89 S3        29.72S
AKRON-CANTON   PTSUNNY   49  44  83 S5        29.71S
WOOSTER        SUNNY     48  45  89 S7        29.71S
MANSFIELD      MOSUNNY   48  45  89 S6        29.69F
YOUNGSTOWN     PTSUNNY   49  39  68 SE6       29.71S
$$

OHZ042-051>053-060>062-070>072-077>081-041300-
  SOUTHWEST OHIO

CITY           SKY/WX    TMP DP  RH WIND       PRES   REMARKS
CINC-COVINGTON PTSUNNY   49  46  90 S7        29.73S
CINC-LUNKEN    MOSUNNY   50  48  93 CALM      29.74S
HAMILTON       CLOUDY    51  48  89 CALM      29.72F
DAYTON         CLOUDY    50  46  86 S12       29.69F
WRIGHT-PAT AFB PTSUNNY   50  49  98 SE3       29.70S
DAYTON GENERAL CLOUDY    49  46  90 S7        29.70F
WILMINGTON     PTSUNNY   49  47  93 SW8       29.72S
$$

OHZ036-037-039>041-045>050-054>059-063>069-073>076-082>088-041300-
  CENTRAL AND SOUTHEAST OHIO

CITY           SKY/WX    TMP DP  RH WIND       PRES   REMARKS
COLUMBUS       MOSUNNY   47  46  97 SE3       29.71F FOG
OSU AIRPORT    MOSUNNY   49  47  93 S6        29.70F FOG
BOLTON FIELD   SUNNY     48  48 100 S6        29.71S FOG
RICKENBACK AFB NOT AVBL
NEWARK         SUNNY     51  47  86 S5        29.71F
MARION         MOSUNNY   48  46  93 S9        29.69F FOG
LANCASTER      MOSUNNY   51  48  89 S5        29.72F FOG
ZANESVILLE     CLOUDY    52  47  83 CALM      29.73S
NEW PHILLY     MOSUNNY   49  46  90 E3        29.72S
$$



USA.gov is the U.S. government's official web portal to all federal, state and local government web resources and services.